,,PA_Meas_PMT16A,,PR_Meas_QMR101_102,,RH_Meas_QMH101,,SR_Meas_QMS101,,TA_Meas_QMH101,,GenWind,,GenWind,
time,status,PA,status,PR,status,RH,status,SR,status,TA,status,DirAvg,status,SpdAvg,
2011-07-14, 00:00:04,VALID,917.54,VALID,0,VALID,95.2393,VALID,0.107441,VALID,17.8897,VALID,147,VALID,1.12617,
2011-07-14, 00:01:04,VALID,917.528,VALID,0,VALID,95.2775,VALID,0,VALID,17.9092,VALID,147,VALID,1.03047,
2011-07-14, 00:02:04,VALID,917.541,VALID,0,VALID,95.2317,VALID,0,VALID,17.9287,VALID,147,VALID,1.41172,
2011-07-14, 00:03:04,VALID,917.547,VALID,0,VALID,95.0564,VALID,0.107441,VALID,17.9677,VALID,147,VALID,1.47695,
2011-07-14, 00:04:04,VALID,917.56,VALID,0,VALID,94.8429,VALID,0.107441,VALID,17.9872,VALID,124,VALID,1.46953,
2011-07-14, 00:05:04,VALID,917.541,VALID,0,VALID,94.4999,VALID,0,VALID,18.0067,VALID,127,VALID,1.79062,
2011-07-14, 00:06:04,VALID,917.541,VALID,0,VALID,94.1263,VALID,0.107441,VALID,18.0846,VALID,130,VALID,1.75586,
2011-07-14, 00:07:04,VALID,917.533,VALID,0,VALID,93.9129,VALID,0.107441,VALID,18.1041,VALID,125,VALID,1.99883,
2011-07-14, 00:08:04,VALID,917.513,VALID,0,VALID,93.7528,VALID,0,VALID,18.1431,VALID,133,VALID,1.61914,
2011-07-14, 00:09:04,VALID,917.479,VALID,0,VALID,93.7223,VALID,0.107441,VALID,18.1626,VALID,128,VALID,1.58125,
2011-07-14, 00:10:04,VALID,917.508,VALID,0,VALID,93.7604,VALID,0,VALID,18.1431,VALID,128,VALID,1.02188,
2011-07-14, 00:11:04,VALID,917.477,VALID,0,VALID,93.9129,VALID,0.107441,VALID,18.1041,VALID,119,VALID,1.77266,
2011-07-14, 00:12:04,VALID,917.49,VALID,0,VALID,94.0196,VALID,0.107441,VALID,18.0846,VALID,122,VALID,1.75898,
2011-07-14, 00:13:04,VALID,917.451,VALID,0,VALID,94.0806,VALID,0.107441,VALID,18.0846,VALID,129,VALID,1.54023,
2011-07-14, 00:14:04,VALID,917.451,VALID,0,VALID,94.012,VALID,0,VALID,18.0846,VALID,120,VALID,1.62148,
2011-07-14, 00:15:04,VALID,917.441,VALID,0,VALID,93.9586,VALID,0,VALID,18.1041,VALID,121,VALID,1.18047,
2011-07-14, 00:16:04,VALID,917.453,VALID,0,VALID,93.829,VALID,0,VALID,18.1041,VALID,140,VALID,1.48672,
2011-07-14, 00:17:04,VALID,917.395,VALID,0,VALID,93.7223,VALID,0.107441,VALID,18.1431,VALID,134,VALID,0.973437,
2011-07-14, 00:18:04,VALID,917.398,VALID,0,VALID,93.7223,VALID,0.107441,VALID,18.1626,VALID,124,VALID,0.577734,
2011-07-14, 00:19:04,VALID,917.369,VALID,0,VALID,93.7756,VALID,0,VALID,18.1431,VALID,137,VALID,0.851563,
2011-07-14, 00:20:04,VALID,917.324,VALID,0,VALID,93.7451,VALID,0,VALID,18.1431,VALID,137,VALID,0.741406,
2011-07-14, 00:21:04,VALID,917.313,VALID,0,VALID,93.7223,VALID,0,VALID,18.1236,VALID,137,VALID,0.778516,
2011-07-14, 00:22:04,VALID,917.295,VALID,0,VALID,93.5317,VALID,0,VALID,18.1431,VALID,137,VALID,1.15273,
2011-07-14, 00:23:04,VALID,917.298,VALID,0,VALID,93.2572,VALID,0.107441,VALID,18.1821,VALID,137,VALID,1.27266,
2011-07-14, 00:24:04,VALID,917.232,VALID,0,VALID,92.9371,VALID,0.107441,VALID,18.2016,VALID,137,VALID,1.23984,
2011-07-14, 00:25:04,VALID,917.2,VALID,0,VALID,92.5406,VALID,0,VALID,18.2406,VALID,137,VALID,0.939453,
2011-07-14, 00:26:04,VALID,917.184,VALID,0,VALID,92.19,VALID,0,VALID,18.2601,VALID,137,VALID,0.4625,
2011-07-14, 00:27:04,VALID,917.162,VALID,0,VALID,92.1671,VALID,0,VALID,18.2796,VALID,137,VALID,0.316406,
2011-07-14, 00:28:04,VALID,917.154,VALID,0,VALID,91.7554,VALID,0,VALID,18.299,VALID,137,VALID,0.806641,
2011-07-14, 00:29:04,VALID,917.122,VALID,0,VALID,91.0617,VALID,0,VALID,18.338,VALID,137,VALID,0.739062,
2011-07-14, 00:30:04,VALID,917.15,VALID,0,VALID,90.4137,VALID,0,VALID,18.3965,VALID,137,VALID,0.683203,
2011-07-14, 00:31:04,VALID,917.129,VALID,0,VALID,89.9716,VALID,0.107441,VALID,18.455,VALID,137,VALID,0.655469,
2011-07-14, 00:32:04,VALID,917.143,VALID,0,VALID,89.7886,VALID,0.107441,VALID,18.494,VALID,137,VALID,0.50625,
2011-07-14, 00:33:04,VALID,917.132,VALID,0,VALID,89.6133,VALID,0,VALID,18.494,VALID,137,VALID,0.523828,
2011-07-14, 00:34:04,VALID,917.126,VALID,0,VALID,89.7657,VALID,0,VALID,18.533,VALID,137,VALID,0.643359,
2011-07-14, 00:35:04,VALID,917.11,VALID,0,VALID,90.1469,VALID,0,VALID,18.533,VALID,137,VALID,0.554297,
2011-07-14, 00:36:04,VALID,917.086,VALID,0,VALID,90.0097,VALID,0,VALID,18.494,VALID,137,VALID,0.801172,
2011-07-14, 00:37:04,VALID,917.078,VALID,0,VALID,90.4671,VALID,0,VALID,18.494,VALID,137,VALID,0.991016,
2011-07-14, 00:38:04,VALID,917.08,VALID,0,VALID,90.8483,VALID,0.107441,VALID,18.4355,VALID,137,VALID,1.10859,
2011-07-14, 00:39:04,VALID,917.075,VALID,0,VALID,91.237,VALID,0,VALID,18.3575,VALID,137,VALID,1.15547,
2011-07-14, 00:40:04,VALID,917.05,VALID,0,VALID,91.4581,VALID,0,VALID,18.299,VALID,137,VALID,1.31562,
2011-07-14, 00:41:04,VALID,917.073,VALID,0,VALID,92.0985,VALID,0,VALID,18.2615,VALID,137,VALID,1.31211,
2011-07-14, 00:42:04,VALID,917.052,VALID,0,VALID,92.7541,VALID,0.107441,VALID,18.1431,VALID,153,VALID,1.12812,
2011-07-14, 00:43:04,VALID,917.027,VALID,0,VALID,93.1963,VALID,0.107441,VALID,18.0248,VALID,153,VALID,0.910937,
2011-07-14, 00:44:04,VALID,917.059,VALID,0,VALID,93.7147,VALID,0,VALID,17.9872,VALID,151,VALID,1.12656,
2011-07-14, 00:45:04,VALID,917.026,VALID,0,VALID,94.073,VALID,0,VALID,17.9287,VALID,146,VALID,0.827344,
2011-07-14, 00:46:04,VALID,917.017,VALID,0,VALID,94.2788,VALID,0,VALID,17.9092,VALID,146,VALID,0.780859,
2011-07-14, 00:47:04,VALID,917.04,VALID,0,VALID,94.3779,VALID,0,VALID,17.8897,VALID,146,VALID,1.04414,
2011-07-14, 00:48:04,VALID,917.039,VALID,0,VALID,94.4084,VALID,0,VALID,17.9106,VALID,146,VALID,1.02969,
2011-07-14, 00:49:04,VALID,917.048,VALID,0,VALID,94.3626,VALID,0,VALID,17.9301,VALID,146,VALID,0.796094,
2011-07-14, 00:50:04,VALID,917.022,VALID,0,VALID,94.3398,VALID,0,VALID,17.9106,VALID,146,VALID,0.645312,
2011-07-14, 00:51:04,VALID,917.042,VALID,0,VALID,94.355,VALID,0,VALID,17.8897,VALID,146,VALID,0.803516,
2011-07-14, 00:52:04,VALID,917.037,VALID,0,VALID,94.294,VALID,0,VALID,17.8897,VALID,146,VALID,0.79375,
2011-07-14, 00:53:04,VALID,917.031,VALID,0,VALID,94.1187,VALID,0,VALID,17.8897,VALID,139,VALID,0.804297,
2011-07-14, 00:54:04,VALID,917.065,VALID,0,VALID,93.8824,VALID,0,VALID,17.9496,VALID,139,VALID,1.07539,
2011-07-14, 00:55:04,VALID,917.05,VALID,0,VALID,93.6842,VALID,0,VALID,17.9287,VALID,139,VALID,1.08516,
2011-07-14, 00:56:04,VALID,917.075,VALID,0,VALID,93.5317,VALID,0.107441,VALID,17.9482,VALID,139,VALID,1.17578,
2011-07-14, 00:57:04,VALID,917.033,VALID,0,VALID,93.5164,VALID,0.107441,VALID,17.9482,VALID,139,VALID,0.509766,
2011-07-14, 00:58:04,VALID,917.057,VALID,0,VALID,93.5622,VALID,0,VALID,17.9691,VALID,139,VALID,1.13945,
2011-07-14, 00:59:04,VALID,917.02,VALID,0,VALID,93.7985,VALID,0,VALID,17.9496,VALID,139,VALID,0.795703,
2011-07-14, 01:00:04,VALID,916.99,VALID,0,VALID,93.9815,VALID,0,VALID,17.9496,VALID,139,VALID,0.809375,
2011-07-14, 01:01:04,VALID,916.967,VALID,0,VALID,94.1644,VALID,0,VALID,17.9301,VALID,139,VALID,0.486328,
2011-07-14, 01:02:04,VALID,916.943,VALID,0,VALID,94.3169,VALID,0,VALID,17.9106,VALID,139,VALID,0.99375,
2011-07-14, 01:03:04,VALID,916.917,VALID,0,VALID,94.3474,VALID,0,VALID,17.9119,VALID,139,VALID,0.263672,
2011-07-14, 01:04:04,VALID,916.897,VALID,0,VALID,94.3626,VALID,0,VALID,17.8716,VALID,139,VALID,0.858594,
2011-07-14, 01:05:04,VALID,916.88,VALID,0,VALID,94.3474,VALID,0,VALID,17.8911,VALID,139,VALID,0.752734,
2011-07-14, 01:06:04,VALID,916.874,VALID,0,VALID,94.294,VALID,0,VALID,17.9106,VALID,139,VALID,0.511719,
2011-07-14, 01:07:04,VALID,916.88,VALID,0,VALID,94.2483,VALID,0,VALID,17.9106,VALID,139,VALID,0.545313,
2011-07-14, 01:08:04,VALID,916.883,VALID,0,VALID,93.9662,VALID,0,VALID,17.9496,VALID,139,VALID,0.609766,
2011-07-14, 01:09:04,VALID,916.866,VALID,0,VALID,93.5088,VALID,0,VALID,17.9886,VALID,139,VALID,0.841406,
2011-07-14, 01:10:04,VALID,916.852,VALID,0,VALID,92.9828,VALID,0,VALID,18.008,VALID,139,VALID,0.980859,
2011-07-14, 01:11:04,VALID,916.859,VALID,0,VALID,92.594,VALID,0,VALID,18.0679,VALID,139,VALID,1.08984,
2011-07-14, 01:12:04,VALID,916.817,VALID,0,VALID,92.3882,VALID,0,VALID,18.0665,VALID,139,VALID,0.786328,
2011-07-14, 01:13:04,VALID,916.851,VALID,0,VALID,92.4949,VALID,0,VALID,18.0679,VALID,139,VALID,0.923828,
2011-07-14, 01:14:04,VALID,916.827,VALID,0,VALID,92.472,VALID,0,VALID,18.047,VALID,139,VALID,0.938281,
2011-07-14, 01:15:04,VALID,916.836,VALID,0,VALID,92.3729,VALID,0,VALID,18.0457,VALID,139,VALID,1.17813,
2011-07-14, 01:16:04,VALID,916.805,VALID,0,VALID,92.2281,VALID,0,VALID,18.047,VALID,139,VALID,1.21289,
2011-07-14, 01:17:04,VALID,916.798,VALID,0,VALID,92.0223,VALID,0,VALID,18.0665,VALID,139,VALID,1.08477,
2011-07-14, 01:18:04,VALID,916.75,VALID,0,VALID,91.8545,VALID,0,VALID,18.0665,VALID,138,VALID,0.760938,
2011-07-14, 01:19:04,VALID,916.765,VALID,0,VALID,91.7859,VALID,0,VALID,18.0846,VALID,138,VALID,0.753906,
2011-07-14, 01:20:04,VALID,916.756,VALID,0,VALID,91.7402,VALID,0,VALID,18.0651,VALID,139,VALID,1.23242,
2011-07-14, 01:21:04,VALID,916.698,VALID,0,VALID,91.7707,VALID,0,VALID,18.0846,VALID,139,VALID,0.594922,
2011-07-14, 01:22:04,VALID,916.659,VALID,0,VALID,91.6411,VALID,0,VALID,18.0846,VALID,138,VALID,0.835938,
2011-07-14, 01:23:04,VALID,916.638,VALID,0,VALID,91.5953,VALID,0,VALID,18.125,VALID,139,VALID,1.21055,
2011-07-14, 01:24:04,VALID,916.614,VALID,0,VALID,91.8088,VALID,0,VALID,18.086,VALID,139,VALID,1.00156,
2011-07-14, 01:25:04,VALID,916.59,VALID,0,VALID,91.9765,VALID,0,VALID,18.0262,VALID,139,VALID,0.983203,
2011-07-14, 01:26:04,VALID,916.557,VALID,0,VALID,92.0985,VALID,0,VALID,18.0067,VALID,139,VALID,1.08477,
2011-07-14, 01:27:04,VALID,916.532,VALID,0,VALID,92.2128,VALID,0,VALID,18.0262,VALID,139,VALID,1.12305,
2011-07-14, 01:28:04,VALID,916.501,VALID,0,VALID,92.1976,VALID,0,VALID,18.0262,VALID,139,VALID,1.13437,
2011-07-14, 01:29:04,VALID,916.494,VALID,0,VALID,92.19,VALID,0,VALID,18.0262,VALID,139,VALID,1.27188,
2011-07-14, 01:30:04,VALID,916.496,VALID,0,VALID,92.2128,VALID,0,VALID,17.9872,VALID,139,VALID,1.05234,
2011-07-14, 01:31:04,VALID,916.519,VALID,0,VALID,92.2205,VALID,0,VALID,17.9872,VALID,139,VALID,1.16172,
2011-07-14, 01:32:04,VALID,916.487,VALID,0,VALID,92.1823,VALID,0,VALID,17.9886,VALID,139,VALID,1.24922,
2011-07-14, 01:33:04,VALID,916.51,VALID,0,VALID,92.19,VALID,0,VALID,17.9691,VALID,139,VALID,0.998047,
2011-07-14, 01:34:04,VALID,916.52,VALID,0,VALID,92.2891,VALID,0,VALID,17.9301,VALID,139,VALID,0.748828,
2011-07-14, 01:35:04,VALID,916.514,VALID,0,VALID,92.4797,VALID,0,VALID,17.8911,VALID,139,VALID,1.07187,
2011-07-14, 01:36:04,VALID,916.518,VALID,0,VALID,92.6016,VALID,0,VALID,17.8326,VALID,139,VALID,0.733203,
2011-07-14, 01:37:04,VALID,916.509,VALID,0,VALID,92.838,VALID,0,VALID,17.7728,VALID,139,VALID,1.15547,
2011-07-14, 01:38:04,VALID,916.496,VALID,0,VALID,93.1886,VALID,0,VALID,17.6948,VALID,132,VALID,0.902734,
2011-07-14, 01:39:04,VALID,916.492,VALID,0,VALID,93.3487,VALID,0,VALID,17.6767,VALID,132,VALID,0.745703,
2011-07-14, 01:40:04,VALID,916.523,VALID,0,VALID,93.6765,VALID,0,VALID,17.6182,VALID,132,VALID,0.914453,
2011-07-14, 01:41:04,VALID,916.515,VALID,0,VALID,93.8824,VALID,0,VALID,17.5779,VALID,131,VALID,0.746484,
2011-07-14, 01:42:04,VALID,916.502,VALID,0,VALID,94.0043,VALID,0,VALID,17.5792,VALID,132,VALID,0.876562,
2011-07-14, 01:43:04,VALID,916.496,VALID,0,VALID,94.1111,VALID,0,VALID,17.5389,VALID,132,VALID,0.949609,
2011-07-14, 01:44:04,VALID,916.477,VALID,0,VALID,94.1263,VALID,0,VALID,17.5389,VALID,132,VALID,0.807422,
2011-07-14, 01:45:04,VALID,916.493,VALID,0,VALID,94.1416,VALID,0,VALID,17.5389,VALID,132,VALID,0.738281,
2011-07-14, 01:46:04,VALID,916.512,VALID,0,VALID,94.1797,VALID,0,VALID,17.5194,VALID,132,VALID,1.03086,
2011-07-14, 01:47:04,VALID,916.478,VALID,0,VALID,94.1416,VALID,0,VALID,17.5389,VALID,132,VALID,0.880859,
2011-07-14, 01:48:04,VALID,916.484,VALID,0,VALID,94.0806,VALID,0,VALID,17.5598,VALID,132,VALID,1.07539,
2011-07-14, 01:49:04,VALID,916.466,VALID,0,VALID,93.9281,VALID,0,VALID,17.5598,VALID,132,VALID,0.894922,
2011-07-14, 01:50:04,VALID,916.474,VALID,0,VALID,94.0196,VALID,0,VALID,17.5194,VALID,132,VALID,0.737109,
2011-07-14, 01:51:04,VALID,916.47,VALID,0,VALID,93.9891,VALID,0,VALID,17.5194,VALID,132,VALID,0.887891,
2011-07-14, 01:52:04,VALID,916.453,VALID,0,VALID,94.0043,VALID,0,VALID,17.5598,VALID,131,VALID,0.694922,
2011-07-14, 01:53:04,VALID,916.439,VALID,0,VALID,93.9434,VALID,0,VALID,17.5598,VALID,131,VALID,0.974609,
2011-07-14, 01:54:04,VALID,916.428,VALID,0,VALID,93.9281,VALID,0,VALID,17.5598,VALID,131,VALID,1.11797,
2011-07-14, 01:55:04,VALID,916.433,VALID,0,VALID,93.9434,VALID,0,VALID,17.5974,VALID,132,VALID,1.12812,
2011-07-14, 01:56:04,VALID,916.408,VALID,0,VALID,93.829,VALID,0,VALID,17.6767,VALID,131,VALID,1.01602,
2011-07-14, 01:57:04,VALID,916.38,VALID,0,VALID,93.7604,VALID,0,VALID,17.6767,VALID,131,VALID,1.225,
2011-07-14, 01:58:04,VALID,916.341,VALID,0,VALID,93.7985,VALID,0,VALID,17.6559,VALID,131,VALID,1.35156,
2011-07-14, 01:59:04,VALID,916.304,VALID,0,VALID,93.8671,VALID,0,VALID,17.6754,VALID,131,VALID,1.19336,
2011-07-14, 02:00:04,VALID,916.281,VALID,0,VALID,93.7604,VALID,0,VALID,17.7143,VALID,130,VALID,0.953125,
2011-07-14, 02:01:04,VALID,916.196,VALID,0,VALID,93.5622,VALID,0,VALID,17.7338,VALID,111,VALID,1.22656,
2011-07-14, 02:02:04,VALID,916.177,VALID,0,VALID,93.4555,VALID,0,VALID,17.7936,VALID,125,VALID,1.73984,
2011-07-14, 02:03:04,VALID,916.175,VALID,0,VALID,93.1963,VALID,0,VALID,17.8131,VALID,130,VALID,1.56016,
2011-07-14, 02:04:04,VALID,916.149,VALID,0,VALID,93.1505,VALID,0,VALID,17.7741,VALID,130,VALID,1.32031,
2011-07-14, 02:05:04,VALID,916.17,VALID,0,VALID,93.2039,VALID,0,VALID,17.7533,VALID,117,VALID,1.32461,
2011-07-14, 02:06:04,VALID,916.135,VALID,0,VALID,93.364,VALID,0,VALID,17.6948,VALID,124,VALID,1.56523,
2011-07-14, 02:07:04,VALID,916.162,VALID,0,VALID,93.3411,VALID,0,VALID,17.6767,VALID,124,VALID,1.09687,
2011-07-14, 02:08:04,VALID,916.143,VALID,0,VALID,93.6384,VALID,0,VALID,17.6182,VALID,121,VALID,1.57148,
2011-07-14, 02:09:04,VALID,916.106,VALID,0,VALID,93.9052,VALID,0,VALID,17.5792,VALID,119,VALID,1.1043,
2011-07-14, 02:10:04,VALID,916.109,VALID,0,VALID,94.2254,VALID,0,VALID,17.5584,VALID,119,VALID,0.805078,
2011-07-14, 02:11:04,VALID,916.089,VALID,0,VALID,94.4922,VALID,0,VALID,17.5598,VALID,143,VALID,1.20352,
2011-07-14, 02:12:04,VALID,916.078,VALID,0,VALID,94.6447,VALID,0,VALID,17.5389,VALID,146,VALID,1.23906,
2011-07-14, 02:13:04,VALID,916.034,VALID,0,VALID,94.7438,VALID,0,VALID,17.5598,VALID,145,VALID,1.21328,
2011-07-14, 02:14:04,VALID,916.033,VALID,0,VALID,94.8429,VALID,0,VALID,17.5792,VALID,146,VALID,1.0918,
2011-07-14, 02:15:04,VALID,916.003,VALID,0,VALID,94.7896,VALID,0,VALID,17.5779,VALID,146,VALID,0.605859,
2011-07-14, 02:16:04,VALID,915.97,VALID,0,VALID,94.8429,VALID,0,VALID,17.5987,VALID,146,VALID,0.879687,
2011-07-14, 02:17:04,VALID,915.954,VALID,0,VALID,94.9039,VALID,0,VALID,17.6182,VALID,146,VALID,0.691016,
2011-07-14, 02:18:04,VALID,915.964,VALID,0,VALID,94.8887,VALID,0,VALID,17.5974,VALID,146,VALID,0.586328,
2011-07-14, 02:19:04,VALID,915.974,VALID,0,VALID,94.7667,VALID,0,VALID,17.6169,VALID,146,VALID,0.791797,
2011-07-14, 02:20:04,VALID,915.941,VALID,0,VALID,94.6676,VALID,0,VALID,17.6169,VALID,145,VALID,0.696484,
2011-07-14, 02:21:04,VALID,915.968,VALID,0,VALID,94.5151,VALID,0,VALID,17.6572,VALID,146,VALID,0.450391,
2011-07-14, 02:22:04,VALID,915.99,VALID,0,VALID,94.416,VALID,0,VALID,17.6559,VALID,145,VALID,0.805859,
2011-07-14, 02:23:04,VALID,915.985,VALID,0,VALID,94.2483,VALID,0,VALID,17.6754,VALID,146,VALID,0.990234,
2011-07-14, 02:24:04,VALID,916.004,VALID,0,VALID,93.9129,VALID,0,VALID,17.7352,VALID,145,VALID,0.740234,
2011-07-14, 02:25:04,VALID,916.009,VALID,0,VALID,93.4859,VALID,0,VALID,17.7728,VALID,144,VALID,0.816797,
2011-07-14, 02:26:04,VALID,915.987,VALID,0,VALID,93.0285,VALID,0,VALID,17.8118,VALID,144,VALID,0.720703,
2011-07-14, 02:27:04,VALID,915.986,VALID,0,VALID,92.6855,VALID,0,VALID,17.8521,VALID,144,VALID,1.00977,
2011-07-14, 02:28:04,VALID,915.93,VALID,0,VALID,92.3272,VALID,0,VALID,17.9092,VALID,144,VALID,0.698438,
2011-07-14, 02:29:04,VALID,915.924,VALID,0,VALID,92.007,VALID,0,VALID,17.9092,VALID,144,VALID,1.02344,
2011-07-14, 02:30:04,VALID,915.94,VALID,0,VALID,91.8012,VALID,0,VALID,17.9482,VALID,144,VALID,1.01367,
2011-07-14, 02:31:04,VALID,915.935,VALID,0,VALID,91.5725,VALID,0,VALID,18.008,VALID,144,VALID,0.962891,
2011-07-14, 02:32:04,VALID,915.914,VALID,0,VALID,91.3971,VALID,0,VALID,18.047,VALID,144,VALID,0.655469,
2011-07-14, 02:33:04,VALID,915.906,VALID,0,VALID,91.1913,VALID,0,VALID,18.0262,VALID,144,VALID,0.689062,
2011-07-14, 02:34:04,VALID,915.881,VALID,0,VALID,91.0617,VALID,0,VALID,18.0457,VALID,144,VALID,0.724609,
2011-07-14, 02:35:04,VALID,915.828,VALID,0,VALID,90.4213,VALID,0,VALID,17.9287,VALID,144,VALID,1.19531,
2011-07-14, 02:36:04,VALID,915.843,VALID,0,VALID,91.2142,VALID,0,VALID,17.7143,VALID,144,VALID,1.38867,
2011-07-14, 02:37:04,VALID,915.801,VALID,0,VALID,92.472,VALID,0,VALID,17.5792,VALID,144,VALID,1.09063,
2011-07-14, 02:38:04,VALID,915.767,VALID,0,VALID,93.181,VALID,0,VALID,17.4805,VALID,97,VALID,1.0582,
2011-07-14, 02:39:04,VALID,915.756,VALID,0,VALID,93.2039,VALID,0,VALID,17.422,VALID,97,VALID,0.835547,
2011-07-14, 02:40:04,VALID,915.705,VALID,0,VALID,93.6918,VALID,0,VALID,17.4025,VALID,97,VALID,0.635938,
2011-07-14, 02:41:04,VALID,915.718,VALID,0,VALID,93.9967,VALID,0,VALID,17.4415,VALID,97,VALID,0.798828,
2011-07-14, 02:42:04,VALID,915.721,VALID,0,VALID,94.0882,VALID,0,VALID,17.5013,VALID,97,VALID,0.796875,
2011-07-14, 02:43:04,VALID,915.675,VALID,0,VALID,93.8595,VALID,0,VALID,17.5403,VALID,97,VALID,0.669141,
2011-07-14, 02:44:04,VALID,915.664,VALID,0,VALID,93.6003,VALID,0,VALID,17.5194,VALID,97,VALID,0.932422,
2011-07-14, 02:45:04,VALID,915.672,VALID,0,VALID,93.5774,VALID,0,VALID,17.5194,VALID,97,VALID,1.07266,
2011-07-14, 02:46:04,VALID,915.668,VALID,0,VALID,93.5469,VALID,0,VALID,17.5792,VALID,97,VALID,1.09648,
2011-07-14, 02:47:04,VALID,915.677,VALID,0,VALID,93.4097,VALID,0,VALID,17.5987,VALID,97,VALID,1.24922,
2011-07-14, 02:48:04,VALID,915.661,VALID,0,VALID,93.3106,VALID,0,VALID,17.5974,VALID,97,VALID,1.14063,
2011-07-14, 02:49:04,VALID,915.684,VALID,0,VALID,93.4326,VALID,0,VALID,17.6182,VALID,116,VALID,1.44492,
2011-07-14, 02:50:04,VALID,915.654,VALID,0,VALID,93.2801,VALID,0,VALID,17.5974,VALID,123,VALID,1.55938,
2011-07-14, 02:51:04,VALID,915.648,VALID,0,VALID,93.2954,VALID,0,VALID,17.5987,VALID,130,VALID,1.35781,
2011-07-14, 02:52:04,VALID,915.633,VALID,0,VALID,93.3411,VALID,0,VALID,17.5779,VALID,138,VALID,1.45,
2011-07-14, 02:53:04,VALID,915.652,VALID,0,VALID,93.3335,VALID,0,VALID,17.5584,VALID,127,VALID,1.40352,
2011-07-14, 02:54:04,VALID,915.672,VALID,0,VALID,93.5317,VALID,0,VALID,17.5792,VALID,127,VALID,1.11328,
2011-07-14, 02:55:04,VALID,915.638,VALID,0,VALID,93.6308,VALID,0,VALID,17.5389,VALID,128,VALID,1.18477,
2011-07-14, 02:56:04,VALID,915.625,VALID,0,VALID,93.7223,VALID,0,VALID,17.5403,VALID,127,VALID,1.35938,
2011-07-14, 02:57:04,VALID,915.598,VALID,0,VALID,93.8747,VALID,0,VALID,17.4805,VALID,127,VALID,1.55273,
2011-07-14, 02:58:04,VALID,915.623,VALID,0,VALID,93.8824,VALID,0,VALID,17.4818,VALID,124,VALID,1.475,
2011-07-14, 02:59:04,VALID,915.608,VALID,0,VALID,93.8976,VALID,0,VALID,17.461,VALID,124,VALID,1.28437,
2011-07-14, 03:00:04,VALID,915.527,VALID,0,VALID,93.8747,VALID,0,VALID,17.4623,VALID,124,VALID,1.11367,
2011-07-14, 03:01:04,VALID,915.54,VALID,0,VALID,93.8747,VALID,0,VALID,17.422,VALID,124,VALID,0.975,
2011-07-14, 03:02:04,VALID,915.537,VALID,0,VALID,93.89,VALID,0,VALID,17.4428,VALID,130,VALID,0.962891,
2011-07-14, 03:03:04,VALID,915.513,VALID,0,VALID,93.8976,VALID,0,VALID,17.461,VALID,136,VALID,1.10547,
2011-07-14, 03:04:04,VALID,915.518,VALID,0,VALID,93.9357,VALID,0,VALID,17.4623,VALID,150,VALID,0.943359,
2011-07-14, 03:05:04,VALID,915.492,VALID,0,VALID,93.9205,VALID,0,VALID,17.461,VALID,150,VALID,0.890234,
2011-07-14, 03:06:04,VALID,915.495,VALID,0,VALID,93.9434,VALID,0,VALID,17.4623,VALID,150,VALID,0.866406,
2011-07-14, 03:07:04,VALID,915.485,VALID,0,VALID,94.0806,VALID,0,VALID,17.4818,VALID,149,VALID,1.13164,
2011-07-14, 03:08:04,VALID,915.478,VALID,0,VALID,94.1873,VALID,0.107441,VALID,17.4818,VALID,149,VALID,0.933594,
2011-07-14, 03:09:04,VALID,915.44,VALID,0,VALID,94.1797,VALID,0,VALID,17.5013,VALID,147,VALID,1.02891,
2011-07-14, 03:10:04,VALID,915.429,VALID,0,VALID,94.233,VALID,0,VALID,17.461,VALID,147,VALID,1.00039,
2011-07-14, 03:11:04,VALID,915.467,VALID,0,VALID,94.2559,VALID,0,VALID,17.461,VALID,147,VALID,0.774609,
2011-07-14, 03:12:04,VALID,915.428,VALID,0,VALID,94.3017,VALID,0,VALID,17.461,VALID,131,VALID,1.41758,
2011-07-14, 03:13:04,VALID,915.419,VALID,0,VALID,94.2864,VALID,0,VALID,17.4818,VALID,128,VALID,1.31641,
2011-07-14, 03:14:04,VALID,915.369,VALID,0,VALID,94.233,VALID,0.107441,VALID,17.4415,VALID,128,VALID,1.24922,
2011-07-14, 03:15:04,VALID,915.354,VALID,0,VALID,94.3093,VALID,0,VALID,17.422,VALID,128,VALID,1.46016,
2011-07-14, 03:16:04,VALID,915.329,VALID,0,VALID,94.355,VALID,0.107441,VALID,17.383,VALID,128,VALID,1.19453,
2011-07-14, 03:17:04,VALID,915.305,VALID,0,VALID,94.3398,VALID,0,VALID,17.383,VALID,128,VALID,1.17969,
2011-07-14, 03:18:04,VALID,915.295,VALID,0,VALID,94.3169,VALID,0,VALID,17.4038,VALID,128,VALID,1.08789,
2011-07-14, 03:19:04,VALID,915.278,VALID,0,VALID,94.2026,VALID,0,VALID,17.4025,VALID,128,VALID,1.37227,
2011-07-14, 03:20:04,VALID,915.253,VALID,0,VALID,93.9738,VALID,0,VALID,17.4025,VALID,128,VALID,1.05938,
2011-07-14, 03:21:04,VALID,915.288,VALID,0,VALID,93.7375,VALID,0,VALID,17.4025,VALID,128,VALID,1.05078,
2011-07-14, 03:22:04,VALID,915.211,VALID,0,VALID,93.5851,VALID,0.107441,VALID,17.4038,VALID,128,VALID,0.964453,
2011-07-14, 03:23:04,VALID,915.244,VALID,0,VALID,93.6918,VALID,0,VALID,17.422,VALID,128,VALID,1.20313,
2011-07-14, 03:24:04,VALID,915.273,VALID,0,VALID,93.5622,VALID,0,VALID,17.4818,VALID,128,VALID,0.950391,
2011-07-14, 03:25:04,VALID,915.275,VALID,0,VALID,93.3564,VALID,0,VALID,17.5013,VALID,133,VALID,0.826953,
2011-07-14, 03:26:04,VALID,915.304,VALID,0,VALID,93.0057,VALID,0,VALID,17.5194,VALID,133,VALID,0.958203,
2011-07-14, 03:27:04,VALID,915.328,VALID,0,VALID,92.6855,VALID,0,VALID,17.5403,VALID,133,VALID,1.01445,
2011-07-14, 03:28:04,VALID,915.396,VALID,0,VALID,92.3272,VALID,0,VALID,17.5403,VALID,133,VALID,0.960938,
2011-07-14, 03:29:04,VALID,915.396,VALID,0,VALID,92.251,VALID,0,VALID,17.5208,VALID,133,VALID,1.20234,
2011-07-14, 03:30:04,VALID,915.439,VALID,0,VALID,92.2967,VALID,0,VALID,17.5416,VALID,133,VALID,0.648828,
2011-07-14, 03:31:04,VALID,915.433,VALID,0,VALID,92.3196,VALID,0,VALID,17.5598,VALID,133,VALID,0.720703,
2011-07-14, 03:32:04,VALID,915.404,VALID,0,VALID,92.2586,VALID,0,VALID,17.5598,VALID,133,VALID,0.489453,
2011-07-14, 03:33:04,VALID,915.417,VALID,0,VALID,92.1747,VALID,0,VALID,17.5598,VALID,133,VALID,0.403906,
2011-07-14, 03:34:04,VALID,915.41,VALID,0,VALID,92.0527,VALID,0,VALID,17.5598,VALID,133,VALID,0.391406,
2011-07-14, 03:35:04,VALID,915.4,VALID,0,VALID,91.9231,VALID,0,VALID,17.5598,VALID,133,VALID,0.544141,
2011-07-14, 03:36:04,VALID,915.393,VALID,0,VALID,91.8774,VALID,0,VALID,17.5403,VALID,133,VALID,0.524219,
2011-07-14, 03:37:04,VALID,915.4,VALID,0,VALID,92.0909,VALID,0,VALID,17.5208,VALID,173,VALID,0.987891,
2011-07-14, 03:38:04,VALID,915.364,VALID,0,VALID,92.5025,VALID,0,VALID,17.4818,VALID,173,VALID,1.01602,
2011-07-14, 03:39:04,VALID,915.355,VALID,0,VALID,92.7693,VALID,0,VALID,17.5026,VALID,173,VALID,1.09727,
2011-07-14, 03:40:04,VALID,915.327,VALID,0,VALID,92.6093,VALID,0,VALID,17.4623,VALID,139,VALID,0.958594,
2011-07-14, 03:41:04,VALID,915.33,VALID,0,VALID,92.4415,VALID,0,VALID,17.4623,VALID,140,VALID,1.48828,
2011-07-14, 03:42:04,VALID,915.309,VALID,0,VALID,92.3119,VALID,0,VALID,17.4623,VALID,124,VALID,2.04063,
2011-07-14, 03:43:04,VALID,915.303,VALID,0,VALID,91.9536,VALID,0,VALID,17.5013,VALID,103,VALID,1.88672,
2011-07-14, 03:44:04,VALID,915.303,VALID,0,VALID,91.7631,VALID,0,VALID,17.4818,VALID,108,VALID,1.55508,